N4MRV-1 Weather Reports


time (UTC)temp
C
wind
direction
speed
KPH
gust
KPH
rain 1hr
cm
rain 24hr
cm
rain mn
cm
humidity
%
barometer
mb
20260507161517 12 0 1.6 4.8 0.00 0.03 0.03 86 1012.5
20260507160017 12 0.0 3.2 0.03 0.03 0.03 86 1012.6
20260507154517 12 0.0 3.2 0.03 0.03 0.03 84 1012.8
20260507153017 13 0.0 3.2 0.03 0.03 0.03 84 1012.7
20260507151517 13 0.0 1.6 0.03 0.03 0.03 83 1012.4
20260507150017 13 0 1.6 6.4 0.00 0.00 0.00 80 1012.7
20260507144517 13 0 1.6 6.4 0.00 0.03 0.00 78 1012.3
20260507143017 13 0 1.6 4.8 0.00 0.08 0.00 79 1012.5
20260507141536 13 0 1.6 4.8 0.00 0.13 0.00 79 1012.7
20260507140017 13 0 1.6 4.8 0.00 0.15 0.00 79 1012.7
20260507134517 13 0 1.6 4.8 0.00 0.20 0.00 78 1012.7
20260507133016 14 0 1.6 8.0 0.00 0.20 0.00 77 1012.6
20260507131517 14 0 1.6 6.4 0.00 0.20 0.00 79 1012.4
20260507130017 13 0 1.6 4.8 0.00 0.20 0.00 83 1012.3
20260507124516 13 0 1.6 4.8 0.00 0.20 0.00 84 1012.5
20260507123017 13 0 1.6 4.8 0.00 0.20 0.00 84 1012.5
20260507121517 13 0 1.6 4.8 0.00 0.20 0.00 84 1012.3
20260507120036 13 0 1.6 6.4 0.00 0.20 0.00 83 1012.2
20260507114516 13 0 1.6 4.8 0.00 0.20 0.00 83 1012.2
20260507113016 13 0 1.6 6.4 0.00 0.20 0.00 82 1012.0
20260507111536 13 0.0 4.8 0.00 0.20 0.00 81 1011.8
20260507110036 13 0.0 3.2 0.00 0.20 0.00 81 1011.9
20260507104516 13 0.0 4.8 0.00 0.20 0.00 80 1011.6
20260507103016 13 0 1.6 6.4 0.00 0.20 0.00 79 1011.4
20260507101517 13 0.0 3.2 0.00 0.20 0.00 79 1010.9
20260507100016 13 0.0 6.4 0.00 0.20 0.00 79 1011.4
20260507094516 13 0 1.6 4.8 0.00 0.20 0.00 80 1011.5
20260507093037 14 0 1.6 4.8 0.00 0.20 0.00 81 1011.7
20260507091516 14 0.0 9.7 0.00 0.20 0.00 83 1011.2
20260507090016 14 0 1.6 4.8 0.00 0.20 0.00 85 1011.4
20260507084536 15 0.0 3.2 0.00 0.20 0.00 85 1011.2
20260507083016 15 0 1.6 6.4 0.00 0.20 0.00 84 1011.2
20260507081516 15 0 1.6 6.4 0.00 0.20 0.00 84 1011.2
20260507080016 16 0 1.6 6.4 0.00 0.20 0.00 83 1010.8
20260507074516 16 0 1.6 6.4 0.00 0.20 0.00 83 1010.4
20260507073016 17 0 1.6 14.5 0.00 0.20 0.00 83 1010.4
20260507071516 18 0.0 4.8 0.00 0.20 0.00 90 1010.3
20260507070016 18 0.0 1.6 0.00 0.20 0.00 89 1010.1
20260507064516 18 0.0 0.0 0.00 0.20 0.00 89 1009.7
20260507063016 18 0.0 0.0 0.00 0.20 0.00 88 1009.5
20260507061516 19 0.0 0.0 0.00 0.20 0.00 88 1009.1
20260507060015 19 0.0 0.0 0.00 0.20 0.00 87 1009.0
20260507054516 19 0.0 0.0 0.00 0.20 0.00 87 1008.8
20260507053036 19 0.0 0.0 0.00 0.20 0.00 86 1009.1
20260507051535 19 0.0 0.0 0.00 0.20 0.00 86 1009.3
20260507050015 19 0.0 0.0 0.00 0.20 0.00 86 1009.8
20260507044516 19 0.0 0.0 0.00 0.20 0.00 86 1010.1
20260507043036 19 0.0 0.0 0.00 0.20 0.00 86 1010.3
20260507041536 19 0.0 0.0 0.00 0.20 0.00 87 1009.9
20260507040016 19 0.0 0.0 0.00 0.20 0.20 87 1009.8
20260507034516 19 0.0 0.0 0.00 0.20 0.20 87 1010.3
20260507033016 18 0.0 1.6 0.00 0.20 0.20 87 1010.1
20260507031516 18 0.0 1.6 0.00 0.20 0.20 87 1009.9
20260507030016 18 0.0 3.2 0.00 0.20 0.20 87 1009.7
20260507024516 18 0.0 1.6 0.00 0.20 0.20 86 1009.6
20260507023036 18 0.0 0.0 0.00 0.20 0.20 86 1009.8
20260507021516 19 0.0 0.0 0.00 0.20 0.20 86 1010.0
20260507020016 19 0.0 0.0 0.00 0.20 0.20 85 1010.1
20260507014516 19 0.0 3.2 0.00 0.20 0.20 85 1010.1
20260507013016 19 0.0 0.0 0.00 0.20 0.20 84 1010.2
20260507011517 19 0.0 0.0 0.00 0.20 0.20 84 1010.1
20260507010036 19 0.0 1.6 0.00 0.20 0.20 83 1009.6
20260507004516 20 0.0 3.2 0.00 0.20 0.20 82 1009.9
20260507003016 20 0.0 1.6 0.00 0.20 0.20 81 1010.2
20260507001515 20 0.0 3.2 0.00 0.20 0.20 80 1010.2
20260507000016 20 0.0 1.6 0.00 0.20 0.20 79 1009.9
20260506234516 21 135 1.6 3.2 0.00 0.20 0.20 78 1009.7
20260506233015 21 225 1.6 4.8 0.00 0.20 0.20 77 1009.7
20260506231516 21 0.0 4.8 0.00 0.20 0.20 76 1009.6
20260506230015 21 68 1.6 6.4 0.00 0.20 0.20 76 1009.6
20260506224515 21 0.0 3.2 0.00 0.20 0.20 77 1009.7
20260506223016 21 0.0 3.2 0.00 0.20 0.20 77 1009.7
20260506221516 21 158 1.6 6.4 0.00 0.20 0.20 76 1009.8
20260506220016 21 158 1.6 4.8 0.00 0.20 0.20 76 1009.6
20260506214516 21 248 1.6 6.4 0.00 0.20 0.20 77 1009.9
20260506213015 21 248 1.6 6.4 0.00 0.20 0.20 77 1009.8
20260506211515 21 270 1.6 4.8 0.00 0.20 0.20 78 1009.9
20260506210035 21 248 1.6 6.4 0.00 0.20 0.20 80 1009.8
20260506204536 20 0.0 3.2 0.00 0.20 0.20 82 1009.9
20260506203035 20 248 1.6 3.2 0.00 0.20 0.20 84 1009.8
20260506201515 20 0.0 3.2 0.00 0.20 0.20 84 1010.0
20260506200015 20 248 1.6 4.8 0.00 0.20 0.20 84 1010.2
20260506194515 20 0.0 1.6 0.00 0.20 0.20 85 1009.6
20260506193015 19 135 1.6 4.8 0.00 0.20 0.20 84 1009.8
20260506191515 19 225 1.6 6.4 0.00 0.20 0.20 85 1010.0
20260506190016 18 315 1.6 4.8 0.00 0.20 0.20 85 1010.4
20260506184517 18 203 1.6 8.0 0.00 0.20 0.20 85 1010.3
20260506183017 18 315 1.6 6.4 0.00 0.20 0.20 84 1010.9
20260506181517 18 338 1.6 9.7 0.00 0.20 0.20 84 1010.8
20260506180017 19 225 1.6 8.0 0.00 0.20 0.20 85 1011.1
20260506174517 18 248 1.6 4.8 0.00 0.20 0.20 88 1011.0
20260506173037 18 0 1.6 4.8 0.00 0.20 0.20 89 1011.0
20260506171517 17 0 1.6 9.7 0.00 0.20 0.20 88 1011.0
20260506170037 17 0 1.6 8.0 0.00 0.20 0.20 89 1011.1
20260506164517 17 0 1.6 4.8 0.00 0.20 0.20 89 1011.4
20260506163017 17 0.0 3.2 0.00 0.20 0.20 91 1011.8